Location: Az?znagar
(16.8373°N, 80.5091°E)
Time: 13:41:58
(UTC+00:00)

deb Chang Zheng 4 - Visible Passes

Search period start: 26 September 2022 00:00
Search period end: 06 October 2022 00:00
Orbit: 877 x 977 km, 98.9° (Epoch: 26 September)

Date Brightness Start Highest point End Pass type
(mag) Time Alt. Az. Time Alt. Az. Time Alt. Az.
26 Sep ? 13:25:04 13° SE 13:29:07 27° ENE 13:33:51 10° NNE visible
26 Sep ? 15:08:42 19° SW 15:11:09 25° W 15:15:46 10° NW visible
27 Sep ? 13:36:03 18° SE 13:39:41 35° ENE 13:44:48 10° N visible
27 Sep ? 15:19:42 16° SW 15:21:47 19° W 15:25:44 10° NW visible
28 Sep ? 13:47:02 23° SE 13:50:15 46° ENE 13:55:39 10° N visible
28 Sep ? 15:30:41 13° WSW 15:32:25 14° W 15:35:22 10° WNW visible
29 Sep ? 13:58:02 30° SE 14:00:50 60° ENE 14:06:25 10° N visible
29 Sep ? 15:42:21 10° WSW 15:43:04 10° W 15:43:47 10° W visible
30 Sep ? 14:09:02 37° SSE 14:11:25 78° ENE 14:17:06 10° N visible
01 Oct ? 14:20:02 43° S 14:22:01 82° WSW 14:27:42 10° NNW visible
02 Oct ? 14:31:01 45° SSW 14:32:37 63° WSW 14:38:13 10° NNW visible
03 Oct ? 12:58:40 10° E 13:01:24 14° ENE 13:04:07 10° NE visible
03 Oct ? 14:42:02 42° SW 14:43:14 48° WSW 14:48:39 10° NNW visible
04 Oct ? 13:09:23 14° ESE 13:11:55 18° ENE 13:15:38 10° NNE visible
04 Oct ? 14:53:01 35° WSW 14:53:50 37° W 14:59:00 10° NW visible
05 Oct ? 13:20:23 19° ESE 13:22:28 24° ENE 13:26:50 10° NNE visible
05 Oct ? 15:04:02 28° WSW 15:04:27 28° W 15:09:14 10° NW visible
